Dewpoint
71 70 70 70 68 69 68 67 58 59 59 58 58 60 58 60 57 61 61 62 59 59 56 56 55 60 60 58 57 58 59 62 59 56 57 67 69 68 69 69 70 70 71 71 73 75 75 77 77 76 76 76 76 76 77 77 76 76 77 76 76 76 76 76 76 76 76 76 76 76 76 76 76 76 75 75 75 75 75 75 74 74 75 74 74 74 74 74 74 74 75 75 75 74 75 75 73
69 70 70 70 69 69 64 64 59 56 57 56 59 57 55 59 64 60 58 62 56 55 55 55 55 55 55 55 55 56 58 59 62 63 66 67 68 68 69 69 69 70 70 71 72 72 74 76 77 76 76 77 77 77 77 77 76 77 76 76 76 76 76 76 77 76 76 76 77 77 76 76 76 76 75 75 75 75 75 75 75 74 74 74 75 74 74 74 74 74 75 74 74 75 75 75 75
69 69 70 71 69 68 68 65 58 56 54 47 55 53 62 60 58 56 60 65 55 55 55 55 55 54 54 56 59 54 57 60 62 63 64 69 68 71 70 70 70 70 70 70 71 73 74 76 77 77 76 77 77 77 77 77 77 76 76 77 76 76 76 76 76 76 77 77 76 76 76 76 76 75 75 75 74 74 75 74 74 74 74 74 74 75 74 74 74 74 74 74 75 75 75 75 75
70 70 70 69 66 68 65 63 59 57 54 48 49 56 54 51 54 56 56 56 55 55 54 55 56 61 58 52 55 57 58 59 62 63 65 68 69 69 67 70 72 69 69 70 72 73 74 76 77 77 77 77 77 77 77 77 77 76 76 77 76 76 77 76 76 77 76 77 76 76 76 75 75 75 75 75 74 74 74 75 75 75 75 74 74 74 74 74 75 75 74 74 74 74 75 75 75
69 72 70 69 67 64 61 60 61 60 55 46 46 49 51 53 55 55 56 56 55 54 55 56 59 59 58 59 59 59 59 60 61 63 64 66 69 68 68 68 69 69 70 71 71 73 74 77 77 77 77 77 77 77 77 77 77 76 77 77 77 76 76 76 76 77 77 76 76 76 75 75 75 74 75 75 74 74 74 74 74 74 74 74 74 74 74 74 74 74 75 74 73 74 74 74 74
70 74 73 71 66 68 66 58 57 56 48 48 47 48 51 53 54 56 56 56 55 55 56 55 55 57 60 60 60 59 60 59 60 61 65 66 68 67 69 69 69 69 71 71 71 73 74 77 77 77 77 77 77 76 77 77 76 77 77 77 77 76 76 76 76 76 76 76 76 76 76 75 75 75 75 75 75 74 74 74 74 74 74 74 74 74 74 74 75 75 74 74 74 74 74 73 74
70 71 70 69 67 68 58 58 59 43 47 48 48 48 50 52 54 56 56 56 56 56 56 56 58 57 56 60 62 61 61 59 59 62 66 67 68 68 68 69 68 68 72 72 72 73 74 77 77 77 77 77 77 77 77 77 76 77 77 77 76 76 76 76 77 76 76 76 76 76 75 75 75 75 75 75 75 75 75 75 75 74 74 74 75 75 75 75 74 74 74 74 74 74 74 73 73
71 70 67 64 61 63 58 57 54 46 46 48 48 49 51 52 54 55 56 56 55 54 56 58 58 59 61 62 60 61 60 60 60 64 65 67 67 67 67 68 67 67 71 71 73 74 77 77 77 77 77 77 76 77 77 76 76 77 77 77 76 76 76 76 76 76 76 76 76 76 75 75 75 75 75 75 75 74 74 75 75 75 75 75 75 75 75 75 75 74 75 74 74 74 74 74 74
69 66 66 63 60 57 56 57 42 45 47 47 47 51 56 53 53 54 54 53 56 56 56 57 57 57 62 62 61 61 61 61 61 66 66 67 66 66 66 66 66 66 69 72 73 75 76 77 77 77 76 76 76 77 77 77 77 77 77 76 76 76 76 76 76 76 76 76 76 76 76 75 75 75 75 75 75 74 74 74 74 74 74 75 75 75 75 75 75 75 75 74 74 74 74 74 74
67 67 64 61 57 53 42 43 44 54 48 49 50 51 51 52 52 52 50 53 54 56 56 58 59 62 62 60 61 61 61 62 62 65 66 65 65 65 66 66 66 67 67 70 73 72 74 77 77 76 76 76 77 77 77 77 77 77 77 76 76 76 76 76 76 76 76 76 76 76 76 75 75 75 75 74 74 74 74 74 74 74 74 74 74 74 75 75 75 75 75 75 74 75 75 74 74
66 67 62 59 53 52 39 39 42 45 47 48 49 51 51 52 52 51 52 51 54 54 56 57 58 58 59 62 62 63 62 62 61 64 66 65 66 65 65 66 66 67 68 69 69 72 74 75 76 76 76 76 77 77 77 77 77 77 76 76 76 76 76 76 76 76 76 76 76 76 76 75 75 75 75 74 74 74 74 74 74 74 74 74 74 74 74 74 74 75 75 75 75 75 75 75 74
64 61 63 58 59 52 39 38 40 43 46 48 49 51 52 51 51 50 48 52 53 53 55 58 56 61 60 61 62 62 62 62 61 63 66 65 64 64 65 65 66 67 68 68 70 71 73 75 75 76 76 76 77 77 77 77 77 77 77 77 77 77 76 76 76 76 76 76 76 76 75 75 75 75 75 74 74 74 73 74 74 74 74 74 74 74 73 73 73 74 74 75 75 74 75 75 75
61 60 59 60 54 57 37 39 39 43 45 47 48 51 52 52 51 51 51 52 52 52 54 63 60 62 59 61 62 62 61 61 62 62 66 65 64 64 65 65 66 67 67 69 70 71 73 73 73 75 75 77 77 76 76 76 77 77 77 77 76 76 76 76 76 77 76 76 76 76 76 75 75 75 75 74 75 74 74 74 74 74 73 74 74 73 74 73 74 74 74 74 74 74 74 75 75
60 59 59 57 56 46 43 38 41 42 43 46 49 51 52 51 52 51 51 51 52 53 55 58 60 62 62 62 62 61 61 62 62 62 63 65 64 64 64 64 65 67 68 68 70 71 72 71 72 72 75 75 75 76 76 76 76 77 77 77 77 76 77 76 76 76 76 76 76 76 76 75 75 75 75 75 75 75 75 74 74 74 73 73 73 73 73 73 74 74 74 74 75 75 75 75 75
57 59 57 54 58 51 38 40 39 41 42 46 46 50 51 52 52 52 51 52 53 54 55 57 59 57 57 60 60 60 61 62 62 63 63 64 64 64 64 65 66 70 68 67 68 69 70 70 70 73 74 73 74 74 75 76 76 76 77 77 77 77 77 77 76 76 76 76 76 76 75 75 75 75 75 75 75 75 75 75 74 74 74 73 73 73 74 75 75 75 75 74 74 75 75 75 75
56 57 55 58 49 48 42 40 41 42 42 44 47 48 49 50 51 52 53 53 52 53 55 54 58 56 56 58 59 60 61 61 62 62 63 64 65 64 64 65 65 67 70 69 68 68 68 69 71 71 72 73 73 72 74 76 76 76 76 77 77 77 76 76 76 76 76 76 76 76 75 76 75 74 75 74 75 75 75 74 74 74 74 74 74 75 75 75 75 75 75 75 75 75 75 75 75
56 56 49 52 49 48 47 43 41 42 43 44 47 47 45 48 52 50 54 52 52 52 54 52 56 54 55 57 59 60 61 62 63 62 63 65 65 64 65 66 66 67 68 70 71 70 69 72 72 71 72 73 71 72 73 75 76 76 77 77 77 76 76 76 76 76 76 76 76 76 76 75 76 75 75 74 74 75 75 74 74 74 74 74 75 75 75 75 75 76 75 75 75 75 75 75 75
56 55 50 48 52 52 47 45 44 44 48 44 47 47 47 47 49 49 52 52 52 53 54 54 55 58 58 58 59 60 61 61 61 62 63 64 65 64 63 66 66 67 68 70 71 71 72 73 75 73 72 72 71 71 73 73 76 76 76 77 76 77 77 76 77 76 76 76 76 76 75 77 77 79 76 75 76 74 74 74 74 75 75 75 75 75 76 75 75 75 75 76 75 75 75 75 75
54 51 49 46 51 53 51 47 42 42 44 54 47 47 48 48 50 48 49 50 50 52 54 54 55 58 59 58 59 60 60 61 60 62 62 64 64 64 64 67 67 66 67 70 72 73 73 74 74 75 74 72 71 72 71 73 75 75 75 75 75 75 76 76 75 75 75 76 75 75 76 75 75 76 76 75 75 74 74 75 75 75 75 75 75 76 75 75 75 75 75 76 76 75 76 75 75
52 49 48 47 51 61 48 46 45 46 44 44 47 47 48 50 50 48 50 49 50 51 52 53 55 57 58 59 60 60 61 60 61 61 61 63 64 64 64 65 66 67 67 68 72 72 72 73 74 71 75 74 74 72 71 73 73 73 72 73 73 73 74 75 75 76 76 78 75 76 74 75 75 76 75 76 75 74 75 75 75 75 75 75 76 75 76 76 76 76 75 75 75 75 75 75 74
49 47 44 48 59 51 47 46 47 46 45 46 46 48 47 51 51 48 49 50 50 50 52 53 55 56 57 59 59 60 60 60 61 61 61 63 64 64 64 65 65 67 67 67 71 72 74 74 74 75 74 75 74 73 72 72 71 70 70 70 72 71 72 72 74 76 76 77 77 76 74 74 74 74 73 71 72 76 75 75 74 75 76 76 76 76 76 76 75 75 75 75 75 75 73 73 72
47 46 43 46 49 50 55 48 47 46 44 46 47 46 45 53 51 50 49 48 47 48 51 52 55 58 58 58 59 60 60 60 60 61 61 62 63 64 65 65 65 65 67 67 68 73 72 73 73 74 75 74 72 73 72 73 71 69 71 70 71 71 71 72 73 74 75 76 75 73 73 73 73 73 73 73 74 74 74 74 73 73 77 75 73 74 75 75 75 76 75 75 71 70 70 72 71
45 45 45 46 47 53 52 49 47 46 46 46 45 46 48 45 47 47 48 49 48 48 50 52 56 58 58 58 59 59 60 60 60 60 61 60 62 62 64 64 65 65 66 67 68 70 73 72 73 72 74 75 74 74 75 72 72 71 71 71 71 70 71 73 72 72 74 76 74 73 70 70 70 70 72 73 73 73 73 75 75 73 73 75 75 75 73 74 74 73 71 72 70 69 70 71 72
47 41 45 44 43 52 56 54 49 46 45 46 45 47 45 45 42 45 45 47 48 49 49 53 56 57 59 59 60 60 60 60 60 60 61 60 61 62 63 62 64 66 67 67 67 69 70 71 73 73 73 75 75 74 75 73 74 71 71 72 72 70 71 71 71 71 74 73 74 73 71 70 68 70 72 72 72 73 72 73 73 71 73 72 71 72 74 74 72 71 73 70 71 71 70 71 70
46 43 41 43 48 49 55 53 50 48 48 46 45 43 43 44 43 45 45 46 48 49 51 53 57 58 59 59 60 60 60 60 59 59 60 61 61 61 62 63 64 66 66 67 67 68 69 69 70 72 74 74 72 73 73 73 73 73 72 71 72 73 72 71 71 73 73 73 72 74 72 70 70 70 72 72 72 72 72 72 76 73 73 73 71 71 71 72 71 71 72 71 72 72 71 71 70
46 44 41 40 42 49 49 50 50 50 47 46 44 42 41 42 43 42 44 45 48 49 52 54 56 57 58 59 59 60 61 60 60 59 60 60 60 61 61 62 63 65 66 67 67 68 69 69 70 69 71 74 72 70 72 72 73 75 73 73 73 73 71 72 72 71 72 71 71 73 70 71 69 69 71 71 71 72 72 73 73 71 71 73 71 72 71 70 70 71 72 73 71 72 72 72 70
45 45 43 42 44 45 46 47 49 48 46 44 41 41 41 41 40 39 43 46 49 49 50 55 56 57 57 58 58 59 60 60 60 59 60 60 61 61 61 62 62 64 65 66 66 68 69 69 69 70 70 73 71 70 71 71 71 71 73 73 73 72 72 73 72 71 70 70 71 74 74 73 72 70 70 71 72 73 73 74 72 72 72 72 72 72 72 73 72 72 74 73 73 73 72 72 71
42 43 44 43 42 43 44 45 45 45 44 42 41 39 40 39 39 38 41 45 48 48 51 55 56 57 57 58 59 61 61 61 61 59 59 60 60 61 61 62 62 62 63 64 66 69 67 67 68 69 69 72 72 70 71 71 72 71 73 72 72 73 74 72 71 71 71 69 72 74 75 73 74 72 74 74 73 73 72 74 73 72 72 71 73 72 72 74 73 74 74 76 75 74 73 72 69
45 41 38 40 40 38 39 40 43 44 42 40 39 38 37 37 35 38 41 44 48 49 53 55 55 56 58 58 59 61 61 61 60 60 59 61 61 61 61 62 62 63 63 64 65 67 66 68 68 69 69 72 72 70 70 71 71 71 72 72 73 72 73 73 71 71 72 72 74 75 75 75 75 74 75 75 74 73 73 73 72 73 73 73 73 76 75 75 74 73 75 75 74 73 72 70 68
42 41 39 37 35 33 33 35 39 41 40 38 37 34 33 34 35 37 41 45 47 50 53 54 55 56 57 58 59 61 61 61 61 60 61 61 61 61 61 61 62 62 63 64 65 65 66 66 67 68 69 71 73 70 71 71 71 72 72 71 72 72 71 71 71 72 71 71 74 75 75 76 75 74 76 74 74 73 74 74 74 73 73 75 75 76 75 74 73 74 73 73 71 73 69 67 65
36 37 36 31 29 28 30 32 36 37 38 36 35 33 31 31 34 37 41 46 47 49 51 53 54 55 56 57 59 60 60 62 61 61 61 61 61 61 60 61 61 62 63 63 64 66 66 67 67 67 70 71 72 71 71 71 72 71 71 71 71 73 72 71 69 71 71 71 72 74 75 76 76 75 74 75 73 73 73 73 74 73 74 75 73 75 74 74 73 73 72 73 73 70 66 66 64
34 32 29 28 26 27 28 31 34 35 36 35 34 32 31 31 35 38 40 45 47 49 51 52 54 54 56 57 58 60 61 62 61 61 61 61 61 61 61 61 60 61 63 65 65 66 66 67 69 67 69 70 72 72 72 72 72 72 71 72 71 73 71 71 69 69 70 69 71 72 76 76 76 76 75 75 73 74 73 72 73 74 77 74 74 76 76 74 74 73 74 73 72 65 65 64 64
29 29 27 26 26 27 27 30 33 35 34 34 33 31 31 31 37 38 43 46 45 48 50 52 52 55 56 57 58 60 61 61 61 60 61 62 62 61 62 62 62 63 63 65 65 67 67 67 69 66 67 68 70 70 71 72 73 73 73 71 70 73 71 70 71 70 69 69 69 69 75 76 76 76 76 75 74 73 73 73 72 75 76 74 77 76 75 73 74 69 74 73 70 69 63 60 60
25 27 26 26 25 26 27 28 31 31 32 30 32 30 31 31 38 41 43 45 46 45 50 51 54 55 59 58 58 60 61 62 61 62 61 62 62 62 62 65 64 64 65 66 66 67 67 67 68 67 68 67 69 70 71 71 73 73 73 72 73 71 71 69 69 70 69 68 70 69 74 75 76 76 76 76 75 74 73 73 72 75 75 77 76 75 74 74 74 73 75 74 69 69 64 62 61
21 25 25 24 26 26 26 26 29 30 31 30 29 30 31 31 40 43 44 41 41 45 47 50 53 56 59 59 59 61 61 62 61 62 61 62 62 63 63 64 64 64 65 66 67 69 69 68 69 69 68 68 69 71 72 73 73 74 72 73 71 71 72 69 68 68 69 69 69 71 74 75 75 76 76 76 75 73 73 73 74 76 75 77 77 75 74 74 74 73 71 74 72 68 66 64 61
18 22 24 25 24 25 25 26 27 29 29 31 30 29 30 32 32 41 39 38 37 41 46 50 53 56 60 60 58 59 61 61 62 62 62 62 62 63 64 64 64 65 66 68 69 70 70 70 70 70 69 68 69 70 71 70 70 71 71 70 70 70 70 69 70 67 68 67 69 71 74 76 76 75 76 76 75 75 73 73 75 76 76 76 76 74 73 73 75 76 72 73 70 69 67 65 65
19 20 23 24 24 24 25 25 25 27 27 28 29 30 29 30 32 35 37 38 38 39 42 46 52 55 60 59 57 58 61 62 63 62 63 63 62 64 64 65 65 66 68 69 69 70 71 69 71 70 70 70 69 69 70 69 68 70 71 69 67 67 70 70 70 69 68 67 69 71 74 74 75 75 75 75 75 75 74 75 76 77 75 76 77 76 75 76 77 75 76 73 70 68 66 63 62
17 18 20 21 23 23 25 28 26 26 25 27 30 27 29 30 30 30 37 38 38 39 40 44 47 51 57 59 58 58 59 61 63 62 62 63 63 64 64 66 67 67 68 68 69 70 71 70 71 71 70 70 69 70 70 70 70 69 69 68 66 66 68 68 69 70 68 67 70 72 74 75 75 75 75 75 75 74 76 76 77 78 77 76 77 77 77 76 77 75 74 72 71 67 65 62 63
16 17 18 17 19 22 24 24 28 26 26 27 27 27 28 28 28 28 28 34 41 42 41 41 46 50 55 57 57 60 61 61 61 63 62 62 63 64 65 66 66 67 68 68 70 70 71 71 72 73 71 71 70 70 70 70 70 71 70 69 67 67 69 70 69 70 70 67 69 72 74 75 75 75 75 75 74 76 78 77 77 78 77 77 77 77 77 77 77 77 74 71 69 68 66 66 62
19 17 18 16 16 17 20 21 25 25 25 26 30 27 28 29 30 30 30 29 35 41 41 41 44 50 52 53 57 59 58 61 58 60 61 63 63 64 66 67 67 68 69 69 69 70 70 71 72 73 72 72 71 71 71 71 72 72 72 72 70 70 69 71 72 71 71 69 68 73 75 75 75 74 74 73 74 77 78 77 77 76 78 77 77 78 78 77 77 77 73 71 70 64 63 64 61
19 18 16 14 14 15 19 19 24 23 25 28 28 29 29 30 28 28 30 27 26 33 41 43 43 48 54 54 58 58 58 61 62 63 62 60 62 64 66 68 67 68 68 69 69 69 69 71 72 73 73 72 72 72 72 73 73 72 73 73 72 72 70 70 71 69 70 70 68 72 75 75 75 73 73 73 74 76 78 78 77 77 78 79 78 78 77 76 75 75 73 72 70 64 62 62 63
15 15 14 12 13 14 15 18 18 21 19 25 26 28 30 33 29 26 27 29 30 33 41 43 43 44 55 55 59 58 56 60 62 61 63 63 63 65 67 68 67 67 69 69 69 69 70 71 72 73 73 73 72 73 73 73 73 72 71 71 71 71 70 69 70 69 68 68 66 67 74 73 73 73 73 74 74 75 77 77 77 77 78 78 77 75 76 75 76 73 72 71 70 66 68 64 64
14 13 11 12 13 10 10 12 16 17 22 25 25 26 28 31 30 30 30 29 31 32 37 41 44 45 48 54 53 53 56 59 62 62 63 62 64 65 67 68 67 67 69 69 69 70 71 71 72 73 73 74 73 74 74 74 74 73 72 71 71 71 71 71 73 71 69 69 70 68 70 73 74 72 72 73 73 75 76 77 77 77 76 78 78 77 76 75 74 74 72 71 69 69 67 66 65
15 11 11 11 10 7 7 8 11 18 22 22 24 24 25 26 28 32 30 29 30 32 33 40 41 46 43 50 53 56 55 54 56 60 62 63 64 65 67 68 68 67 68 69 69 70 72 73 73 73 73 74 74 74 74 75 74 73 73 72 72 72 71 72 73 73 72 71 70 68 67 71 74 74 72 74 74 75 75 76 77 77 77 76 77 77 75 74 74 74 73 73 72 70 69 68 64
13 8 6 7 6 4 4 7 9 12 15 20 21 20 24 27 30 31 30 29 30 32 34 44 47 46 47 50 50 55 54 56 60 57 61 64 65 65 67 68 68 68 68 68 69 70 71 73 74 74 74 74 74 75 75 75 74 74 74 73 72 72 73 72 72 73 71 71 71 71 70 69 73 75 74 73 74 75 75 75 76 76 76 75 76 75 74 74 75 74 74 73 73 71 70 70 68
15 10 7 7 8 6 3 3 8 13 19 21 21 16 22 24 26 28 31 29 30 30 41 45 48 45 48 49 52 55 58 58 61 62 64 64 65 65 67 68 68 67 67 70 70 70 71 73 74 74 74 74 74 75 75 75 75 75 74 74 73 73 73 72 71 72 73 72 72 73 72 73 71 75 76 74 75 75 75 76 75 75 75 73 74 74 74 74 75 75 74 74 74 72 71 70 69
13 11 7 7 11 15 16 10 12 13 15 19 15 12 13 15 24 25 26 26 29 31 38 40 45 48 48 52 51 53 58 60 61 62 64 65 65 66 67 68 69 68 68 69 69 70 71 73 74 74 75 74 75 75 76 75 75 74 74 74 74 74 73 73 72 72 73 73 73 73 73 73 73 73 74 75 74 75 76 75 74 73 74 74 74 74 75 73 73 74 74 75 74 73 71 70 70
12 11 9 15 19 19 21 17 19 14 13 18 11 8 9 14 20 24 27 27 26 30 35 40 45 47 49 53 48 51 57 60 60 62 64 65 66 67 67 68 69 69 69 69 69 71 72 73 74 75 76 76 75 75 76 75 74 74 75 75 74 74 74 72 72 72 74 74 74 73 74 74 74 73 74 72 74 71 75 75 75 73 74 73 73 75 74 74 74 73 74 75 75 74 73 71 70
11 11 14 13 17 17 15 18 14 15 13 14 7 6 9 14 22 22 21 22 25 29 28 35 41 45 48 50 51 50 55 59 60 62 64 65 65 66 66 69 71 69 69 70 69 69 71 73 75 75 76 76 76 75 75 75 74 74 75 75 75 75 74 74 73 73 74 75 75 74 74 74 74 74 73 72 72 73 74 75 76 74 74 75 75 75 75 75 75 73 74 74 74 74 73 72 70
12 13 14 15 16 15 17 15 16 14 11 7 8 10 10 14 17 20 18 22 22 25 31 31 36 44 49 51 52 48 53 58 60 60 63 66 66 66 68 69 70 69 69 69 69 70 72 73 75 75 76 76 76 76 76 75 75 75 75 75 75 75 75 74 73 72 72 74 76 75 74 72 73 73 72 73 71 72 73 75 76 76 76 76 76 77 76 77 76 75 74 74 73 74 74 72 72
14 12 11 16 19 14 18 15 13 12 15 12 8 10 17 11 15 13 17 20 23 22 23 34 35 35 49 51 51 47 51 57 60 62 61 64 66 67 67 68 69 70 68 68 69 71 73 73 75 75 76 76 76 76 76 75 75 75 75 75 75 75 74 73 72 72 73 73 74 75 75 72 71 73 73 74 74 73 74 75 76 76 76 76 77 77 76 77 78 77 75 75 74 74 74 72 71
13 14 13 15 16 18 14 16 13 14 12 11 16 11 14 16 23 25 21 14 18 20 25 28 34 33 44 49 49 47 47 51 57 61 62 64 66 68 67 67 69 70 70 69 70 71 72 73 75 76 76 76 76 76 76 76 75 75 75 76 75 75 75 74 74 74 73 73 74 75 75 75 73 72 74 74 74 74 74 74 75 76 77 76 77 77 77 75 77 77 76 75 75 73 74 73 72
15 13 12 12 13 11 19 23 18 17 17 18 18 16 12 15 14 18 23 21 19 19 22 24 32 32 42 48 49 46 45 48 54 59 61 64 65 68 68 69 68 69 69 69 72 72 73 74 75 76 77 76 77 77 76 76 75 76 75 75 75 75 74 73 72 73 71 73 74 74 74 74 74 73 72 74 74 75 75 75 75 76 77 77 76 77 76 75 77 76 76 76 75 73 74 74 72
14 11 10 12 12 12 19 15 24 19 16 19 12 13 15 13 15 20 21 19 16 19 20 19 32 34 36 47 47 45 44 47 54 60 63 64 65 67 67 67 68 69 70 71 72 72 73 74 74 75 76 76 76 76 75 75 76 75 76 76 76 75 74 73 72 72 73 73 73 74 74 74 74 72 71 71 74 75 76 76 76 76 76 76 75 75 76 75 76 76 76 76 76 75 74 74 74
12 11 11 9 13 14 18 19 16 15 15 17 16 14 15 18 23 18 18 19 18 21 24 21 24 29 32 34 42 46 44 44 51 57 61 63 64 66 68 67 67 69 71 71 71 72 72 73 74 74 75 75 75 74 74 75 76 75 75 75 76 75 74 74 73 74 74 73 72 72 73 73 73 74 74 74 74 74 76 76 77 76 76 76 76 75 76 76 76 76 75 75 76 76 75 74 74
12 14 11 11 13 13 16 18 22 22 16 18 15 14 14 19 19 17 20 21 23 19 22 22 21 24 25 29 30 38 45 45 48 54 59 62 63 64 66 66 67 68 70 70 70 70 70 72 73 74 74 75 75 75 75 75 74 74 74 75 76 76 76 75 75 74 73 74 73 72 73 72 73 73 74 74 74 74 75 75 75 75 74 75 76 75 75 76 76 76 74 73 74 76 75 74 73
9 12 14 12 11 11 12 12 13 15 20 19 20 14 18 18 10 10 20 26 24 21 22 26 23 25 26 31 32 39 46 46 46 51 57 61 63 63 65 66 66 67 69 69 69 69 70 71 71 72 74 73 74 74 74 75 75 75 75 75 75 75 75 75 74 75 74 74 74 74 72 73 74 73 74 74 75 75 75 76 75 76 74 75 76 75 75 76 76 76 75 75 74 75 75 74 74
9 10 13 12 10 12 13 15 11 10 14 19 17 18 24 15 13 20 19 23 24 25 24 23 24 19 29 31 36 42 46 49 49 49 53 58 63 63 63 65 66 66 67 68 69 69 69 70 70 71 71 71 72 73 74 76 75 74 74 75 75 75 75 76 75 74 74 73 74 74 74 74 73 74 74 73 75 74 75 75 75 76 76 75 76 77 74 75 76 76 75 73 73 75 75 75 74